BER1322 EDDB-LGIR

Flight info

Callsign BER1322
Flight time 2h 42m
Altitude 31000
Route LUROS3Q/06R LUROS M725 HDO DCT EVIKU/N0466F390 DCT PISAM/N0467F410 DCT SASAL DCT VEBAL DCT GUBOK DCT NILKU DCT NIK DCT POD DCT PINDO UL607 PIKOS DCT KEA UL607 GIVIS T514 XAVIS XAVIS1A
Aircraft A332/H-SDE3GHIJ2J3J5M1RVWXYZ/LB2D1

Departure

Time 2026-05-06 11:26
Airport Berlin Brandenburg Airport (EDDB)

Arrival

Time 2026-05-06 14:09
Airport Heraklion International Nikos Kazantzakis Airport (LGIR)
Time Latitude Longitude Altitude Speed Heading
2026-05-06 10:20 52.36418 13.50574 158 ft 0 kts 69°
2026-05-06 10:21 52.36419 13.50580 158 ft 0 kts 69°
2026-05-06 11:10 52.36417 13.50570 158 ft 4 kts 69°
2026-05-06 11:10 52.36407 13.50529 158 ft 4 kts 69°
2026-05-06 11:10 52.36399 13.50496 158 ft 4 kts 71°
2026-05-06 11:10 52.36395 13.50455 158 ft 4 kts 103°
2026-05-06 11:11 52.36407 13.50424 158 ft 3 kts 158°
2026-05-06 11:11 52.36430 13.50409 158 ft 2 kts 159°
2026-05-06 11:11 52.36432 13.50408 158 ft 0 kts 159°
2026-05-06 11:16 52.36420 13.50415 158 ft 4 kts 159°
2026-05-06 11:16 52.36377 13.50443 158 ft 8 kts 159°
2026-05-06 11:17 52.36313 13.50483 158 ft 11 kts 159°
2026-05-06 11:17 52.36235 13.50531 158 ft 13 kts 159°
2026-05-06 11:17 52.36143 13.50590 158 ft 16 kts 159°
2026-05-06 11:17 52.36029 13.50661 158 ft 19 kts 159°
2026-05-06 11:18 52.35899 13.50742 158 ft 17 kts 159°
2026-05-06 11:18 52.35813 13.50803 158 ft 14 kts 156°
2026-05-06 11:18 52.35749 13.50831 158 ft 6 kts 184°
2026-05-06 11:18 52.35711 13.50768 158 ft 10 kts 243°
2026-05-06 11:19 52.35678 13.50630 158 ft 15 kts 249°
2026-05-06 11:19 52.35636 13.50449 158 ft 19 kts 249°
2026-05-06 11:19 52.35604 13.50313 158 ft 20 kts 249°
2026-05-06 11:19 52.35549 13.50090 158 ft 22 kts 248°
2026-05-06 11:20 52.35471 13.49756 160 ft 25 kts 249°
2026-05-06 11:20 52.35409 13.49488 158 ft 26 kts 249°
2026-05-06 11:20 52.35340 13.49202 158 ft 28 kts 248°
2026-05-06 11:20 52.35292 13.49002 158 ft 28 kts 249°
2026-05-06 11:21 52.35220 13.48695 158 ft 29 kts 249°
2026-05-06 11:21 52.35143 13.48378 158 ft 30 kts 249°
2026-05-06 11:21 52.35066 13.48055 158 ft 31 kts 249°
2026-05-06 11:21 52.34988 13.47720 158 ft 32 kts 249°
2026-05-06 11:22 52.34907 13.47383 158 ft 32 kts 249°
2026-05-06 11:22 52.34846 13.47122 158 ft 23 kts 249°
2026-05-06 11:22 52.34790 13.46888 158 ft 15 kts 248°
2026-05-06 11:22 52.34763 13.46791 158 ft 9 kts 235°
2026-05-06 11:23 52.34709 13.46774 158 ft 9 kts 164°
2026-05-06 11:23 52.34680 13.46791 158 ft 0 kts 160°
2026-05-06 11:24 52.34679 13.46791 158 ft 1 kts 160°
2026-05-06 11:24 52.34652 13.46808 158 ft 8 kts 160°
2026-05-06 11:24 52.34586 13.46849 158 ft 13 kts 156°
2026-05-06 11:24 52.34566 13.46954 158 ft 9 kts 70°
2026-05-06 11:25 52.34568 13.46964 158 ft 0 kts 70°
2026-05-06 11:25 52.34568 13.46965 158 ft 1 kts 70°
2026-05-06 11:25 52.34629 13.47241 158 ft 59 kts 69°
2026-05-06 11:26 52.34862 13.48197 162 ft 120 kts 68°
2026-05-06 11:26 52.35234 13.49718 238 ft 162 kts 65°
2026-05-06 11:26 52.35647 13.51403 1017 ft 151 kts 66°
2026-05-06 11:26 52.35803 13.53094 1750 ft 160 kts 105°
2026-05-06 11:27 52.35041 13.54683 1887 ft 201 kts 138°
2026-05-06 11:27 52.33882 13.56179 2351 ft 221 kts 141°
2026-05-06 11:27 52.32698 13.57774 3189 ft 224 kts 139°
2026-05-06 11:27 52.31547 13.59466 4134 ft 221 kts 138°
2026-05-06 11:28 52.30421 13.61159 5062 ft 220 kts 135°
2026-05-06 11:28 52.29712 13.63355 5929 ft 224 kts 95°
2026-05-06 11:28 52.30087 13.65864 6477 ft 242 kts 53°
2026-05-06 11:28 52.31138 13.68109 7165 ft 256 kts 55°
2026-05-06 11:29 52.31919 13.70794 7920 ft 271 kts 72°
2026-05-06 11:29 52.32272 13.73927 8482 ft 291 kts 89°
2026-05-06 11:29 52.31914 13.77225 9154 ft 301 kts 117°
2026-05-06 11:29 52.30603 13.79826 9931 ft 297 kts 152°
2026-05-06 11:30 52.28656 13.81040 10348 ft 309 kts 174°
2026-05-06 11:30 52.26455 13.81514 10736 ft 328 kts 179°
2026-05-06 11:30 52.24120 13.81731 11155 ft 345 kts 181°
2026-05-06 11:30 52.21692 13.82136 11800 ft 355 kts 175°
2026-05-06 11:31 52.19246 13.82992 12584 ft 362 kts 169°
2026-05-06 11:31 52.16844 13.84101 13476 ft 364 kts 167°
2026-05-06 11:31 52.14413 13.85292 14260 ft 365 kts 167°
2026-05-06 11:31 52.11959 13.86434 14961 ft 368 kts 168°
2026-05-06 11:32 52.09478 13.87542 15650 ft 371 kts 169°
2026-05-06 11:32 52.06973 13.88634 16364 ft 374 kts 169°
2026-05-06 11:32 52.04441 13.89724 17079 ft 377 kts 169°
2026-05-06 11:32 52.01892 13.90818 17772 ft 380 kts 169°
2026-05-06 11:33 51.99328 13.91919 18397 ft 383 kts 169°
2026-05-06 11:33 51.96743 13.93030 18974 ft 386 kts 169°
2026-05-06 11:33 51.94136 13.94152 19558 ft 388 kts 169°
2026-05-06 11:33 51.91517 13.95281 20119 ft 391 kts 169°
2026-05-06 11:34 51.88870 13.96421 20674 ft 394 kts 169°
2026-05-06 11:34 51.86242 13.97551 21216 ft 397 kts 169°
2026-05-06 11:34 51.83562 13.98703 21766 ft 400 kts 169°
2026-05-06 11:34 51.80857 13.99863 22302 ft 403 kts 169°
2026-05-06 11:35 51.78140 14.01028 22832 ft 405 kts 169°
2026-05-06 11:35 51.75403 14.02199 23350 ft 408 kts 169°
2026-05-06 11:35 51.72647 14.03377 23769 ft 411 kts 169°
2026-05-06 11:35 51.69873 14.04561 24197 ft 413 kts 169°
2026-05-06 11:36 51.67086 14.05750 24635 ft 416 kts 170°
2026-05-06 11:36 51.64277 14.06945 25010 ft 419 kts 170°
2026-05-06 11:36 51.61445 14.08149 25435 ft 421 kts 170°
2026-05-06 11:36 51.58600 14.09358 25876 ft 423 kts 170°
2026-05-06 11:37 51.55780 14.10555 26309 ft 425 kts 170°
2026-05-06 11:37 51.52917 14.11768 26738 ft 426 kts 170°
2026-05-06 11:37 51.50039 14.12986 27159 ft 428 kts 170°
2026-05-06 11:37 51.47152 14.14206 27580 ft 430 kts 171°
2026-05-06 11:38 51.44252 14.15429 27985 ft 432 kts 171°
2026-05-06 11:38 51.41342 14.16655 28368 ft 434 kts 171°
2026-05-06 11:38 51.38420 14.17884 28812 ft 434 kts 171°
2026-05-06 11:38 51.35492 14.19116 29210 ft 436 kts 171°
2026-05-06 11:39 51.32551 14.20350 29593 ft 438 kts 171°
2026-05-06 11:39 51.29604 14.21585 29937 ft 439 kts 171°
2026-05-06 11:39 51.26635 14.22827 30206 ft 442 kts 171°
2026-05-06 11:39 51.23649 14.24074 30460 ft 445 kts 171°
2026-05-06 11:40 51.20649 14.25326 30715 ft 447 kts 171°
2026-05-06 11:40 51.17634 14.26583 31061 ft 448 kts 171°
2026-05-06 11:40 51.14626 14.27839 31470 ft 446 kts 171°
2026-05-06 11:40 51.11700 14.29060 31893 ft 445 kts 171°
2026-05-06 11:41 51.08705 14.30305 32241 ft 445 kts 171°
2026-05-06 11:41 51.05708 14.31548 32561 ft 445 kts 171°
2026-05-06 11:41 51.02704 14.32791 32913 ft 445 kts 171°
2026-05-06 11:41 50.99715 14.34029 33358 ft 443 kts 171°
2026-05-06 11:42 50.96773 14.35245 33738 ft 442 kts 171°
2026-05-06 11:42 50.93793 14.36474 34039 ft 442 kts 171°
2026-05-06 11:42 50.90814 14.37658 34298 ft 442 kts 172°
2026-05-06 11:42 50.87825 14.38792 34590 ft 441 kts 172°
2026-05-06 11:43 50.84834 14.39898 34860 ft 441 kts 172°
2026-05-06 11:43 50.81834 14.40997 35131 ft 442 kts 172°
2026-05-06 11:43 50.78835 14.42094 35402 ft 442 kts 172°
2026-05-06 11:44 50.72836 14.44297 35919 ft 443 kts 172°
2026-05-06 11:44 50.69833 14.45404 36187 ft 443 kts 171°
2026-05-06 11:44 50.66828 14.46513 36414 ft 444 kts 171°
2026-05-06 11:44 50.63812 14.47624 36595 ft 446 kts 171°
2026-05-06 11:45 50.60777 14.48741 36810 ft 448 kts 171°
2026-05-06 11:45 50.57743 14.49857 37073 ft 448 kts 171°
2026-05-06 11:45 50.54711 14.50971 37348 ft 448 kts 171°
2026-05-06 11:45 50.51678 14.52085 37609 ft 448 kts 171°
2026-05-06 11:46 50.48640 14.53198 37795 ft 449 kts 171°
2026-05-06 11:46 50.45613 14.54511 37982 ft 453 kts 166°
2026-05-06 11:46 50.42648 14.56049 38222 ft 454 kts 165°
2026-05-06 11:46 50.39652 14.57670 38430 ft 456 kts 164°
2026-05-06 11:47 50.36656 14.59328 38551 ft 458 kts 164°
2026-05-06 11:47 50.33651 14.61008 38727 ft 458 kts 164°
2026-05-06 11:47 50.27620 14.64380 38805 ft 460 kts 164°
2026-05-06 11:48 50.21582 14.67734 38804 ft 460 kts 164°
2026-05-06 11:48 50.15587 14.71043 38801 ft 460 kts 164°
2026-05-06 11:49 50.09542 14.74367 38800 ft 460 kts 164°
2026-05-06 11:49 50.03503 14.77678 38799 ft 459 kts 165°
2026-05-06 11:50 49.97477 14.80976 38808 ft 457 kts 165°
2026-05-06 11:50 49.91513 14.84229 38810 ft 457 kts 165°
2026-05-06 11:51 49.85517 14.87492 38817 ft 455 kts 165°
2026-05-06 11:51 49.79547 14.90733 38816 ft 454 kts 165°
2026-05-06 11:52 49.73580 14.93962 38819 ft 454 kts 165°
2026-05-06 11:52 49.67649 14.97164 38817 ft 454 kts 165°
2026-05-06 11:53 49.61706 15.00366 38804 ft 450 kts 165°
2026-05-06 11:53 49.55797 15.03540 38817 ft 450 kts 165°
2026-05-06 11:54 49.49871 15.06712 38815 ft 451 kts 165°
2026-05-06 11:54 49.43944 15.09878 38818 ft 451 kts 165°
2026-05-06 11:55 49.38018 15.13037 38817 ft 449 kts 165°
2026-05-06 11:55 49.32124 15.16173 38812 ft 448 kts 165°
2026-05-06 11:56 49.26237 15.19294 38814 ft 448 kts 165°
2026-05-06 11:56 49.20347 15.22409 38811 ft 448 kts 165°
2026-05-06 11:57 49.14495 15.25496 38806 ft 446 kts 165°
2026-05-06 11:57 49.08636 15.28582 38804 ft 445 kts 165°
2026-05-06 11:58 49.02786 15.31652 38804 ft 445 kts 165°
2026-05-06 11:58 48.96930 15.34718 38806 ft 445 kts 165°
2026-05-06 11:59 48.91069 15.37781 38803 ft 445 kts 164°
2026-05-06 11:59 48.85341 15.41453 38803 ft 447 kts 160°
2026-05-06 12:00 48.79702 15.45356 38807 ft 448 kts 159°
2026-05-06 12:00 48.74044 15.49320 38807 ft 447 kts 160°
2026-05-06 12:01 48.68393 15.53262 38791 ft 447 kts 160°
2026-05-06 12:01 48.62727 15.57191 38799 ft 448 kts 160°
2026-05-06 12:02 48.57049 15.61113 38802 ft 449 kts 160°
2026-05-06 12:02 48.51400 15.65006 38798 ft 448 kts 160°
2026-05-06 12:03 48.45719 15.68912 38798 ft 448 kts 160°
2026-05-06 12:03 48.40026 15.72815 38796 ft 452 kts 160°
2026-05-06 12:04 48.34264 15.76753 38799 ft 456 kts 160°
2026-05-06 12:04 48.28525 15.80671 38804 ft 455 kts 160°
2026-05-06 12:05 48.22762 15.84597 38805 ft 454 kts 160°
2026-05-06 12:05 48.16992 15.88514 38804 ft 456 kts 160°
2026-05-06 12:06 48.11210 15.92429 38811 ft 456 kts 160°
2026-05-06 12:06 48.05452 15.96319 38811 ft 456 kts 160°
2026-05-06 12:07 47.99652 16.00229 38810 ft 457 kts 160°
2026-05-06 12:07 47.93855 16.04128 38810 ft 457 kts 160°
2026-05-06 12:08 47.89048 16.07353 38816 ft 455 kts 160°
2026-05-06 12:08 47.82345 16.11840 38815 ft 454 kts 160°
2026-05-06 12:09 47.77522 16.15059 38815 ft 454 kts 160°
2026-05-06 12:09 47.71757 16.18897 38813 ft 454 kts 160°
2026-05-06 12:10 47.66015 16.22711 38833 ft 455 kts 160°
2026-05-06 12:10 47.60228 16.26547 38831 ft 455 kts 160°
2026-05-06 12:11 47.54437 16.30377 38838 ft 455 kts 160°
2026-05-06 12:11 47.48640 16.34201 38838 ft 456 kts 160°
2026-05-06 12:12 47.42890 16.37984 38849 ft 454 kts 161°
2026-05-06 12:12 47.37153 16.41755 39009 ft 451 kts 161°
2026-05-06 12:13 47.34282 16.43635 39163 ft 452 kts 161°
2026-05-06 12:13 47.31401 16.45519 39350 ft 453 kts 161°
2026-05-06 12:13 47.28522 16.47399 39537 ft 453 kts 160°
2026-05-06 12:13 47.25642 16.49278 39716 ft 453 kts 160°
2026-05-06 12:14 47.22759 16.51156 39873 ft 453 kts 160°
2026-05-06 12:14 47.19863 16.53039 39971 ft 456 kts 160°
2026-05-06 12:14 47.16956 16.54928 40113 ft 457 kts 160°
2026-05-06 12:14 47.14045 16.56818 40295 ft 457 kts 160°
2026-05-06 12:15 47.11170 16.58683 40470 ft 457 kts 160°
2026-05-06 12:15 47.08263 16.60566 40647 ft 457 kts 160°
2026-05-06 12:15 47.05350 16.62451 40809 ft 457 kts 160°
2026-05-06 12:15 47.02435 16.64334 40881 ft 460 kts 160°
2026-05-06 12:16 46.96550 16.68128 40882 ft 463 kts 160°
2026-05-06 12:16 46.90646 16.71928 40888 ft 463 kts 160°
2026-05-06 12:17 46.84747 16.75715 40885 ft 463 kts 160°
2026-05-06 12:17 46.78845 16.79495 40889 ft 463 kts 160°
2026-05-06 12:18 46.72983 16.83239 40880 ft 463 kts 160°
2026-05-06 12:18 46.67066 16.87010 40890 ft 464 kts 160°
2026-05-06 12:19 46.61153 16.90769 40912 ft 464 kts 160°
2026-05-06 12:19 46.55235 16.94522 40907 ft 464 kts 160°
2026-05-06 12:20 46.49343 16.98249 40907 ft 464 kts 160°
2026-05-06 12:20 46.43414 17.01992 40909 ft 464 kts 160°
2026-05-06 12:21 46.37486 17.05725 40909 ft 464 kts 160°
2026-05-06 12:21 46.31557 17.09450 40906 ft 464 kts 160°
2026-05-06 12:22 46.25661 17.13145 40907 ft 464 kts 160°
2026-05-06 12:22 46.19736 17.16849 40910 ft 464 kts 160°
2026-05-06 12:23 46.13813 17.20544 40910 ft 464 kts 160°
2026-05-06 12:23 46.07888 17.24231 40908 ft 464 kts 160°
2026-05-06 12:24 46.01963 17.27910 40906 ft 463 kts 161°
2026-05-06 12:24 45.96043 17.31555 40901 ft 463 kts 161°
2026-05-06 12:25 45.90109 17.35152 40916 ft 462 kts 161°
2026-05-06 12:25 45.84202 17.38717 40916 ft 462 kts 161°
2026-05-06 12:26 45.78265 17.42297 40912 ft 462 kts 161°
2026-05-06 12:26 45.72329 17.45871 40907 ft 462 kts 161°
2026-05-06 12:27 45.66399 17.49435 40910 ft 462 kts 162°
2026-05-06 12:27 45.60459 17.52995 40901 ft 462 kts 162°
2026-05-06 12:28 45.54564 17.56521 40909 ft 462 kts 162°
2026-05-06 12:28 45.48635 17.60060 40911 ft 462 kts 162°
2026-05-06 12:29 45.42702 17.63591 40910 ft 462 kts 162°
2026-05-06 12:29 45.36765 17.67118 40909 ft 462 kts 162°
2026-05-06 12:30 45.30820 17.70641 40912 ft 462 kts 162°
2026-05-06 12:30 45.24915 17.74132 40911 ft 463 kts 162°
2026-05-06 12:31 45.18968 17.77641 40908 ft 463 kts 162°
2026-05-06 12:31 45.13017 17.81144 40910 ft 463 kts 162°
2026-05-06 12:32 45.07071 17.84636 40909 ft 462 kts 162°
2026-05-06 12:32 45.01089 17.87979 40906 ft 461 kts 164°
2026-05-06 12:33 44.95078 17.91017 40904 ft 462 kts 165°
2026-05-06 12:33 44.89008 17.94033 40907 ft 462 kts 165°
2026-05-06 12:34 44.82950 17.97068 40909 ft 462 kts 165°
2026-05-06 12:34 44.76903 18.00114 40912 ft 462 kts 165°
2026-05-06 12:35 44.70849 18.03161 40909 ft 462 kts 165°
2026-05-06 12:35 44.64797 18.06201 40909 ft 462 kts 165°
2026-05-06 12:36 44.58762 18.09223 40921 ft 464 kts 165°
2026-05-06 12:36 44.52672 18.12267 40920 ft 464 kts 165°
2026-05-06 12:37 44.46580 18.15305 40930 ft 464 kts 165°
2026-05-06 12:37 44.40491 18.18336 40932 ft 464 kts 165°
2026-05-06 12:38 44.34401 18.21359 40936 ft 464 kts 165°
2026-05-06 12:38 44.28304 18.24379 40939 ft 466 kts 164°
2026-05-06 12:39 44.22188 18.27400 40942 ft 467 kts 164°
2026-05-06 12:39 44.16100 18.30403 40955 ft 467 kts 164°
2026-05-06 12:40 44.09973 18.33419 40963 ft 467 kts 164°
2026-05-06 12:40 44.03853 18.36424 40969 ft 466 kts 164°
2026-05-06 12:41 43.97721 18.39428 40966 ft 466 kts 164°
2026-05-06 12:41 43.91588 18.42426 40966 ft 466 kts 164°
2026-05-06 12:42 43.85507 18.45392 40957 ft 466 kts 164°
2026-05-06 12:42 43.79376 18.48375 40970 ft 467 kts 164°
2026-05-06 12:43 43.73234 18.51358 40972 ft 467 kts 164°
2026-05-06 12:43 43.67100 18.54332 40990 ft 466 kts 164°
2026-05-06 12:44 43.60968 18.57297 40993 ft 467 kts 164°
2026-05-06 12:44 43.54818 18.60262 41008 ft 469 kts 164°
2026-05-06 12:45 43.48696 18.63211 41016 ft 469 kts 164°
2026-05-06 12:46 43.39456 18.67649 41019 ft 468 kts 164°
2026-05-06 12:46 43.33285 18.70539 41025 ft 467 kts 166°
2026-05-06 12:47 43.27051 18.73066 41029 ft 466 kts 168°
2026-05-06 12:47 43.20803 18.75480 41031 ft 466 kts 168°
2026-05-06 12:48 43.14557 18.77912 41029 ft 466 kts 167°
2026-05-06 12:48 43.08352 18.80352 41041 ft 467 kts 167°
2026-05-06 12:49 43.02059 18.82832 41064 ft 468 kts 167°
2026-05-06 12:49 42.95842 18.85279 41055 ft 467 kts 167°
2026-05-06 12:50 42.89596 18.87729 41049 ft 468 kts 167°
2026-05-06 12:50 42.83338 18.90180 41041 ft 468 kts 167°
2026-05-06 12:51 42.77179 18.93128 41066 ft 473 kts 157°
2026-05-06 12:51 42.71437 18.97585 41065 ft 476 kts 152°
2026-05-06 12:52 42.65850 19.02338 41062 ft 477 kts 151°
2026-05-06 12:52 42.60246 19.07160 41060 ft 477 kts 151°
2026-05-06 12:53 42.54619 19.11958 41072 ft 476 kts 152°
2026-05-06 12:53 42.48981 19.16726 41074 ft 478 kts 152°
2026-05-06 12:54 42.43359 19.21462 41075 ft 478 kts 152°
2026-05-06 12:54 42.37715 19.26246 41068 ft 479 kts 150°
2026-05-06 12:55 42.32183 19.31284 41075 ft 480 kts 149°
2026-05-06 12:55 42.26692 19.36413 41072 ft 480 kts 149°
2026-05-06 12:56 42.21191 19.41520 41075 ft 480 kts 149°
2026-05-06 12:56 42.15675 19.46599 41068 ft 479 kts 149°
2026-05-06 12:57 42.10179 19.51635 41075 ft 481 kts 149°
2026-05-06 12:57 42.04643 19.56695 41077 ft 481 kts 149°
2026-05-06 12:58 41.99102 19.61752 41076 ft 481 kts 149°
2026-05-06 12:58 41.93560 19.66799 41084 ft 481 kts 149°
2026-05-06 12:59 41.88048 19.71807 41082 ft 481 kts 149°
2026-05-06 12:59 41.82510 19.76829 41084 ft 481 kts 149°
2026-05-06 13:00 41.76965 19.81848 41085 ft 481 kts 149°
2026-05-06 13:00 41.72342 19.86023 41091 ft 482 kts 149°
2026-05-06 13:01 41.66770 19.91044 41080 ft 482 kts 149°
2026-05-06 13:01 41.61199 19.96054 41088 ft 482 kts 149°
2026-05-06 13:02 41.55626 20.01056 41088 ft 482 kts 149°
2026-05-06 13:02 41.50055 20.06046 41088 ft 482 kts 149°
2026-05-06 13:03 41.44513 20.10999 41088 ft 482 kts 149°
2026-05-06 13:03 41.38930 20.15979 41086 ft 482 kts 149°
2026-05-06 13:04 41.33342 20.20952 41084 ft 484 kts 149°
2026-05-06 13:04 41.27741 20.25926 41082 ft 484 kts 149°
2026-05-06 13:05 41.22141 20.30890 41086 ft 484 kts 149°
2026-05-06 13:05 41.16536 20.35847 41078 ft 484 kts 149°
2026-05-06 13:06 41.10926 20.40800 41081 ft 484 kts 149°
2026-05-06 13:06 41.05317 20.45742 41081 ft 484 kts 149°
2026-05-06 13:07 40.99701 20.50677 41073 ft 485 kts 149°
2026-05-06 13:07 40.94111 20.55578 41076 ft 486 kts 149°
2026-05-06 13:08 40.88466 20.60520 41075 ft 486 kts 149°
2026-05-06 13:08 40.82820 20.65451 41067 ft 485 kts 149°
2026-05-06 13:09 40.77179 20.70369 41067 ft 485 kts 149°
2026-05-06 13:09 40.71575 20.75245 41059 ft 485 kts 149°
2026-05-06 13:10 40.65934 20.80141 41071 ft 486 kts 149°
2026-05-06 13:10 40.60282 20.85036 41059 ft 486 kts 149°
2026-05-06 13:11 40.54623 20.89928 41051 ft 487 kts 149°
2026-05-06 13:11 40.48980 20.94864 41054 ft 488 kts 146°
2026-05-06 13:12 40.43740 21.00547 41063 ft 489 kts 142°
2026-05-06 13:12 40.38612 21.06434 41049 ft 490 kts 141°
2026-05-06 13:13 40.33505 21.12353 41058 ft 490 kts 141°
2026-05-06 13:13 40.28428 21.18210 41034 ft 490 kts 141°
2026-05-06 13:14 40.23300 21.24092 41033 ft 490 kts 141°
2026-05-06 13:14 40.18161 21.29968 41033 ft 490 kts 141°
2026-05-06 13:15 40.13014 21.35842 41041 ft 490 kts 141°
2026-05-06 13:15 40.07867 21.41704 41031 ft 490 kts 141°
2026-05-06 13:16 40.02722 21.47553 41031 ft 490 kts 141°
2026-05-06 13:16 39.97571 21.53395 41034 ft 490 kts 141°
2026-05-06 13:17 39.92512 21.59281 41026 ft 491 kts 140°
2026-05-06 13:17 39.87488 21.65315 41028 ft 491 kts 139°
2026-05-06 13:18 39.82462 21.71355 41028 ft 491 kts 139°
2026-05-06 13:18 39.77429 21.77366 41025 ft 491 kts 140°
2026-05-06 13:19 39.72389 21.83358 41018 ft 491 kts 139°
2026-05-06 13:19 39.67339 21.89344 41010 ft 492 kts 139°
2026-05-06 13:20 39.62286 21.95324 41015 ft 491 kts 139°
2026-05-06 13:20 39.57260 22.01260 41010 ft 492 kts 139°
2026-05-06 13:21 39.52193 22.07232 41007 ft 492 kts 140°
2026-05-06 13:21 39.47132 22.13185 41007 ft 492 kts 140°
2026-05-06 13:22 39.42056 22.19143 41013 ft 493 kts 139°
2026-05-06 13:22 39.36968 22.25102 41008 ft 493 kts 139°
2026-05-06 13:23 39.31879 22.31052 41020 ft 493 kts 140°
2026-05-06 13:23 39.26817 22.36958 41021 ft 493 kts 140°
2026-05-06 13:24 39.21715 22.42898 41019 ft 493 kts 140°
2026-05-06 13:24 39.16621 22.48817 41027 ft 493 kts 139°
2026-05-06 13:25 39.11504 22.54751 41040 ft 494 kts 139°
2026-05-06 13:25 39.06385 22.60674 41038 ft 495 kts 140°
2026-05-06 13:26 39.01258 22.66593 41040 ft 495 kts 140°
2026-05-06 13:26 38.96136 22.72497 41038 ft 495 kts 140°
2026-05-06 13:27 38.91034 22.78366 41040 ft 495 kts 140°
2026-05-06 13:27 38.85896 22.84264 41038 ft 496 kts 140°
2026-05-06 13:28 38.80752 22.90155 41028 ft 496 kts 140°
2026-05-06 13:28 38.75594 22.96052 41032 ft 496 kts 140°
2026-05-06 13:29 38.70438 23.01934 41028 ft 496 kts 140°
2026-05-06 13:29 38.65290 23.07795 41031 ft 496 kts 140°
2026-05-06 13:30 38.60134 23.13654 41034 ft 496 kts 140°
2026-05-06 13:30 38.54996 23.19481 41035 ft 497 kts 140°
2026-05-06 13:31 38.49817 23.25343 41035 ft 497 kts 140°
2026-05-06 13:31 38.44638 23.31192 41031 ft 497 kts 140°
2026-05-06 13:32 38.39490 23.36996 41038 ft 497 kts 140°
2026-05-06 13:32 38.34306 23.42828 41037 ft 497 kts 140°
2026-05-06 13:33 38.29113 23.48657 41045 ft 498 kts 140°
2026-05-06 13:33 38.23910 23.54488 41046 ft 498 kts 140°
2026-05-06 13:34 38.18700 23.60316 41049 ft 498 kts 140°
2026-05-06 13:34 38.13491 23.66130 41047 ft 498 kts 140°
2026-05-06 13:35 38.08271 23.71944 41048 ft 498 kts 140°
2026-05-06 13:35 38.03056 23.77742 41051 ft 499 kts 140°
2026-05-06 13:36 37.97858 23.83508 41054 ft 500 kts 140°
2026-05-06 13:36 37.92622 23.89308 41075 ft 499 kts 140°
2026-05-06 13:37 37.87389 23.95091 41076 ft 499 kts 140°
2026-05-06 13:37 37.82152 24.00868 41074 ft 499 kts 140°
2026-05-06 13:38 37.76909 24.06640 41072 ft 499 kts 140°
2026-05-06 13:38 37.71696 24.12367 41072 ft 500 kts 140°
2026-05-06 13:39 37.66434 24.18137 41067 ft 501 kts 141°
2026-05-06 13:39 37.61169 24.23900 41072 ft 501 kts 141°
2026-05-06 13:40 37.55826 24.29547 41073 ft 499 kts 147°
2026-05-06 13:40 37.50040 24.34373 41075 ft 498 kts 149°
2026-05-06 13:41 37.44160 24.39006 41082 ft 498 kts 150°
2026-05-06 13:41 37.38249 24.43606 41074 ft 499 kts 150°
2026-05-06 13:42 37.32381 24.48180 41073 ft 500 kts 150°
2026-05-06 13:42 37.26476 24.52792 41080 ft 500 kts 150°
2026-05-06 13:43 37.20564 24.57404 41077 ft 500 kts 150°
2026-05-06 13:43 37.14657 24.62005 41071 ft 500 kts 150°
2026-05-06 13:43 37.11708 24.64298 40953 ft 498 kts 150°
2026-05-06 13:44 37.08764 24.66586 40484 ft 497 kts 150°
2026-05-06 13:44 37.05833 24.68862 40052 ft 494 kts 150°
2026-05-06 13:44 37.02909 24.71129 39569 ft 493 kts 150°
2026-05-06 13:44 37.00024 24.73364 39069 ft 493 kts 150°
2026-05-06 13:45 36.97106 24.75622 38497 ft 493 kts 150°
2026-05-06 13:45 36.91272 24.80132 37165 ft 493 kts 150°
2026-05-06 13:45 36.88362 24.82383 36466 ft 494 kts 150°
2026-05-06 13:46 36.85432 24.84651 35789 ft 494 kts 150°
2026-05-06 13:46 36.82513 24.86908 35118 ft 494 kts 150°
2026-05-06 13:46 36.79586 24.89171 34408 ft 495 kts 150°
2026-05-06 13:46 36.76652 24.91436 33619 ft 496 kts 150°
2026-05-06 13:47 36.73712 24.93703 32763 ft 498 kts 150°
2026-05-06 13:47 36.70752 24.95983 31888 ft 500 kts 150°
2026-05-06 13:47 36.67819 24.98238 31025 ft 503 kts 149°
2026-05-06 13:47 36.64844 25.00522 30234 ft 503 kts 149°
2026-05-06 13:48 36.61872 25.02800 29440 ft 501 kts 149°
2026-05-06 13:48 36.58896 25.05078 28585 ft 505 kts 149°
2026-05-06 13:48 36.55889 25.07378 27578 ft 507 kts 149°
2026-05-06 13:48 36.52909 25.09656 27137 ft 496 kts 149°
2026-05-06 13:49 36.49998 25.11880 26678 ft 487 kts 149°
2026-05-06 13:49 36.48062 25.13359 26284 ft 483 kts 149°
2026-05-06 13:49 36.45245 25.15508 25668 ft 478 kts 149°
2026-05-06 13:49 36.42420 25.17660 25052 ft 474 kts 149°
2026-05-06 13:50 36.39623 25.19789 24431 ft 470 kts 149°
2026-05-06 13:50 36.36843 25.21904 23827 ft 467 kts 149°
2026-05-06 13:50 36.34081 25.24003 23132 ft 463 kts 149°
2026-05-06 13:50 36.31348 25.26077 22492 ft 457 kts 149°
2026-05-06 13:51 36.28652 25.28124 21861 ft 452 kts 149°
2026-05-06 13:51 36.25982 25.30148 21220 ft 447 kts 149°
2026-05-06 13:51 36.23344 25.32147 20602 ft 442 kts 149°
2026-05-06 13:51 36.20726 25.34129 19974 ft 438 kts 149°
2026-05-06 13:52 36.18136 25.36087 19360 ft 434 kts 149°
2026-05-06 13:52 36.15569 25.38028 18769 ft 430 kts 149°
2026-05-06 13:52 36.13014 25.39834 18130 ft 425 kts 156°
2026-05-06 13:52 36.10287 25.41180 17479 ft 419 kts 161°
2026-05-06 13:53 36.07554 25.42356 17058 ft 409 kts 162°
2026-05-06 13:53 36.04902 25.43453 16802 ft 395 kts 163°
2026-05-06 13:53 36.02342 25.44499 16590 ft 381 kts 163°
2026-05-06 13:53 35.99869 25.45502 16386 ft 367 kts 163°
2026-05-06 13:54 35.97500 25.46460 16057 ft 349 kts 163°
2026-05-06 13:54 35.95228 25.47375 15532 ft 339 kts 163°
2026-05-06 13:54 35.93005 25.48269 14922 ft 333 kts 163°
2026-05-06 13:54 35.90805 25.49152 14423 ft 331 kts 163°
2026-05-06 13:55 35.88629 25.50025 14021 ft 326 kts 163°
2026-05-06 13:55 35.86476 25.50888 13505 ft 323 kts 163°
2026-05-06 13:55 35.84369 25.51732 12950 ft 321 kts 163°
2026-05-06 13:55 35.82253 25.52580 12419 ft 318 kts 163°
2026-05-06 13:56 35.80157 25.53418 11878 ft 316 kts 162°
2026-05-06 13:56 35.78069 25.54254 11356 ft 313 kts 162°
2026-05-06 13:56 35.76000 25.55081 10870 ft 312 kts 162°
2026-05-06 13:56 35.73943 25.55903 10467 ft 309 kts 162°
2026-05-06 13:57 35.71906 25.56717 10073 ft 307 kts 162°
2026-05-06 13:57 35.69903 25.57602 9649 ft 305 kts 154°
2026-05-06 13:57 35.68125 25.58986 9243 ft 301 kts 142°
2026-05-06 13:57 35.66482 25.60570 8839 ft 299 kts 141°
2026-05-06 13:58 35.64741 25.61937 8425 ft 297 kts 157°
2026-05-06 13:58 35.62732 25.62398 8024 ft 294 kts 184°
2026-05-06 13:58 35.60793 25.61732 7627 ft 288 kts 211°
2026-05-06 13:58 35.59288 25.60205 7256 ft 283 kts 229°
2026-05-06 13:59 35.58012 25.58378 6866 ft 280 kts 232°
2026-05-06 13:59 35.56786 25.56528 6477 ft 279 kts 233°
2026-05-06 13:59 35.55563 25.54686 6069 ft 277 kts 232°
2026-05-06 13:59 35.54346 25.52871 5708 ft 274 kts 232°
2026-05-06 14:00 35.53141 25.51086 5452 ft 266 kts 232°
2026-05-06 14:00 35.51991 25.49391 5259 ft 250 kts 232°
2026-05-06 14:00 35.50909 25.47801 5044 ft 235 kts 232°
2026-05-06 14:00 35.49880 25.46288 4761 ft 228 kts 232°
2026-05-06 14:01 35.48869 25.44802 4347 ft 225 kts 231°
2026-05-06 14:01 35.47883 25.43353 4097 ft 222 kts 231°
2026-05-06 14:01 35.46918 25.41941 3979 ft 210 kts 231°
2026-05-06 14:01 35.45896 25.40739 3843 ft 200 kts 216°
2026-05-06 14:02 35.44627 25.40121 3620 ft 197 kts 189°
2026-05-06 14:02 35.43281 25.40285 3369 ft 196 kts 161°
2026-05-06 14:02 35.42054 25.40992 3108 ft 193 kts 151°
2026-05-06 14:02 35.40887 25.41810 3012 ft 194 kts 150°
2026-05-06 14:03 35.39721 25.42638 3009 ft 194 kts 150°
2026-05-06 14:03 35.38550 25.43451 3008 ft 194 kts 153°
2026-05-06 14:03 35.37264 25.43912 3010 ft 194 kts 179°
2026-05-06 14:03 35.35993 25.43468 2943 ft 191 kts 215°
2026-05-06 14:04 35.35146 25.42246 2791 ft 188 kts 242°
2026-05-06 14:04 35.34580 25.40839 2626 ft 180 kts 247°
2026-05-06 14:04 35.34086 25.39486 2486 ft 172 kts 247°
2026-05-06 14:04 35.33604 25.38170 2377 ft 169 kts 247°
2026-05-06 14:05 35.33123 25.36870 2311 ft 166 kts 248°
2026-05-06 14:05 35.32816 25.35519 2223 ft 165 kts 266°
2026-05-06 14:05 35.32826 25.34116 2150 ft 164 kts 275°
2026-05-06 14:05 35.32923 25.32726 2064 ft 164 kts 276°
2026-05-06 14:06 35.33030 25.31332 2017 ft 164 kts 276°
2026-05-06 14:06 35.33136 25.29939 1993 ft 164 kts 276°
2026-05-06 14:06 35.33237 25.28555 1876 ft 162 kts 276°
2026-05-06 14:06 35.33336 25.27179 1628 ft 162 kts 276°
2026-05-06 14:07 35.33435 25.25810 1313 ft 159 kts 276°
2026-05-06 14:07 35.33527 25.24524 1045 ft 148 kts 276°
2026-05-06 14:07 35.33613 25.23323 871 ft 135 kts 276°
2026-05-06 14:07 35.33696 25.22198 680 ft 133 kts 276°
2026-05-06 14:08 35.33772 25.21065 479 ft 133 kts 276°
2026-05-06 14:08 35.33839 25.19950 309 ft 128 kts 276°
2026-05-06 14:08 35.33918 25.18879 122 ft 124 kts 277°
2026-05-06 14:08 35.33984 25.17921 95 ft 90 kts 274°
2026-05-06 14:09 35.34017 25.17389 90 ft 42 kts 274°
2026-05-06 14:09 35.34009 25.17156 91 ft 16 kts 250°
2026-05-06 14:09 35.33969 25.17045 93 ft 12 kts 245°
2026-05-06 14:09 35.33950 25.17013 93 ft 1 kts 195°
2026-05-06 14:10 35.33944 25.17027 93 ft 3 kts 107°
2026-05-06 14:10 35.33938 25.17117 88 ft 14 kts 95°
2026-05-06 14:10 35.33929 25.17246 89 ft 16 kts 95°
2026-05-06 14:10 35.33922 25.17341 89 ft 9 kts 95°
2026-05-06 14:11 35.33891 25.17388 89 ft 7 kts 183°
2026-05-06 14:11 35.33839 25.17369 88 ft 7 kts 229°
2026-05-06 14:11 35.33839 25.17330 92 ft 4 kts 287°
2026-05-06 14:11 35.33857 25.17308 91 ft 3 kts 319°
2026-05-06 14:12 35.33857 25.17307 91 ft 0 kts 319°